This is the latest recevied weather packets stored in our database for station/object GW4288. If no packets are shown the sender has not sent any weather packets the latest 1 day(s).
| Time | Temp. | Humidity | Pressure | Rain* | Wind** | Luminosity | Snow |
|---|---|---|---|---|---|---|---|
| 1778152617 | 17.78° C | 73% | 1012.9 hPa | 0 mm | - | 120 W/m² | - |
| 1778152498 | 17.78° C | 73% | 1012.8 hPa | 0 mm | - | 117 W/m² | - |
| 1778152376 | 17.78° C | 72% | 1012.8 hPa | 0 mm | - | 111 W/m² | - |
| 1778152303 | 17.78° C | 72% | 1012.8 hPa | 0 mm | - | 101 W/m² | - |
| 1778152262 | 17.78° C | 72% | 1013 hPa | 0 mm | - | 93 W/m² | - |
| 1778152114 | 17.78° C | 72% | 1012.8 hPa | 0 mm | - | 91 W/m² | - |
| 1778151897 | 17.78° C | 72% | 1013 hPa | 0 mm | - | 85 W/m² | - |
| 1778151777 | 17.78° C | 72% | 1012.7 hPa | 0 mm | - | 76 W/m² | - |
| 1778151674 | 17.78° C | 72% | 1012.9 hPa | 0 mm | - | 73 W/m² | - |
| 1778151536 | 17.78° C | 72% | 1012.9 hPa | 0 mm | - | 69 W/m² | - |
| 1778151417 | 17.78° C | 72% | 1012.8 hPa | 0 mm | - | 65 W/m² | - |
| 1778151297 | 17.78° C | 72% | 1012.8 hPa | 0 mm | - | 62 W/m² | - |
| 1778151176 | 17.78° C | 71% | 1012.8 hPa | 0 mm | - | 60 W/m² | - |
| 1778151065 | 17.78° C | 71% | 1012.9 hPa | 0 mm | - | 61 W/m² | - |
| 1778150937 | 17.78° C | 71% | 1012.9 hPa | 0 mm | - | 69 W/m² | - |
| 1778150817 | 17.78° C | 71% | 1012.6 hPa | 0 mm | - | 80 W/m² | - |
| 1778150696 | 17.78° C | 70% | 1012.6 hPa | 0 mm | - | 91 W/m² | - |
| 1778150577 | 17.78° C | 71% | 1012.8 hPa | 0 mm | - | 91 W/m² | - |
| 1778150467 | 17.78° C | 70% | 1012.5 hPa | 0 mm | - | 91 W/m² | - |
| 1778150336 | 17.78° C | 69% | 1012.6 hPa | 0 mm | - | 91 W/m² | - |
| 1778150217 | 18.33° C | 68% | 1012.7 hPa | 0 mm | - | 97 W/m² | - |
| 1778150097 | 18.33° C | 68% | 1012.6 hPa | 0 mm | - | 106 W/m² | - |
| 1778149977 | 18.33° C | 68% | 1012.6 hPa | 0 mm | - | 112 W/m² | - |
| 1778149866 | 18.33° C | 68% | 1012.6 hPa | 0 mm | - | 113 W/m² | - |
| 1778149750 | 18.33° C | 68% | 1012.7 hPa | 0 mm | - | 119 W/m² | - |
* Rain latest hour (hover to see other rain measurements)
** Current wind speed in m/s (hover to see current wind gust speed)